This is the latest recevied weather packets stored in our database for station/object vk4zu-13. If no packets are shown the sender has not sent any weather packets the latest 1 day(s).
| Time | Temp. | Humidity | Pressure | Rain* | Wind** | Luminosity | Snow |
|---|---|---|---|---|---|---|---|
| 1778036854 | 23.33° C | 84% | 1016.9 hPa | 0 mm | - | 237 W/m² | - |
| 1778036789 | 23.33° C | 81% | 1017.1 hPa | 0 mm | - | 234 W/m² | - |
| 1778036723 | 23.33° C | 82% | 1017.1 hPa | 0 mm | - | 229 W/m² | - |
| 1778036649 | 23.33° C | 82% | 1017 hPa | 0 mm | - | 225 W/m² | - |
| 1778036509 | 23.33° C | 79% | 1017.1 hPa | 0 mm | - | 230 W/m² | - |
| 1778036439 | 23.33° C | 80% | 1017.1 hPa | 0 mm | - | 239 W/m² | - |
| 1778036378 | 23.33° C | 80% | 1017.1 hPa | 0 mm | - | 250 W/m² | - |
| 1778036317 | 23.33° C | 80% | 1017.1 hPa | 0 mm | - | 279 W/m² | - |
| 1778036178 | 23.33° C | 80% | 1017.1 hPa | 0 mm | - | 345 W/m² | - |
| 1778036115 | 23.33° C | 81% | 1017.1 hPa | 0 mm | - | 345 W/m² | - |
| 1778036017 | 23.33° C | 81% | 1017.1 hPa | 0 mm | - | 385 W/m² | - |
| 1778035929 | 23.33° C | 82% | 1017.1 hPa | 0 mm | - | 387 W/m² | - |
| 1778035865 | 23.33° C | 82% | 1017.1 hPa | 0 mm | - | 413 W/m² | - |
| 1778035806 | 23.33° C | 82% | 1017.2 hPa | 0 mm | - | 381 W/m² | - |
| 1778035741 | 23.33° C | 81% | 1017.1 hPa | 0 mm | - | 360 W/m² | - |
| 1778035662 | 23.33° C | 82% | 1017.1 hPa | 0 mm | - | 371 W/m² | - |
| 1778035592 | 23.33° C | 83% | 1017.2 hPa | 0 mm | - | 374 W/m² | - |
| 1778035459 | 22.78° C | 86% | 1017.1 hPa | 0 mm | - | 357 W/m² | - |
| 1778035399 | 22.78° C | 84% | 1017.1 hPa | 0 mm | - | 301 W/m² | - |
| 1778035329 | 22.78° C | 85% | 1017.2 hPa | 0 mm | - | 264 W/m² | - |
| 1778035261 | 22.78° C | 85% | 1017.1 hPa | 0 mm | - | 234 W/m² | - |
| 1778035190 | 22.78° C | 83% | 1017.1 hPa | 0 mm | - | 200 W/m² | - |
| 1778035136 | 22.22° C | 83% | 1017.2 hPa | 0 mm | - | 188 W/m² | - |
| 1778035054 | 22.78° C | 84% | 1017.3 hPa | 0 mm | - | 174 W/m² | - |
| 1778034925 | 22.22° C | 84% | 1017.2 hPa | 0 mm | - | 171 W/m² | - |
* Rain latest hour (hover to see other rain measurements)
** Current wind speed in m/s (hover to see current wind gust speed)